ICEYE-X35

导读 | 星芒AI

ICEYE-X35 是 ICEYE 公司研发的一颗合成孔径雷达(SAR)卫星,具备高分辨率成像能力,可在任何天气和光照条件下提供地球表面的实时图像。该卫星采用小型卫星平台,提升了任务灵活性和部署效率。作为 ICEYE 低轨 SAR 卫星星座的一部分,ICEYE-X35 用于支持防灾减灾、环境监测、安全与国防等应用,增强全球对地观测能力。

基本信息
目录编号:
58302
目录名称:
ICEYE-X35
国际标识:
2023-174AY
轨道中心:
EARTH
卫星名称:
ICEYE-X35
卫星全名:
--
卫星状态:
在轨 (已飞行765 天)
发射日期:
2023-11-11 UTC
国别 :
(FI)
星等 :
--
轨道信息
数据来源 国际轨道数据
星历时间: 2025-12-15T06:16:35+0800
20小时前
查看轨道信息
半长轴: 6828.73km
偏心率: 0.0011704
轨道倾角: 97.399°
近地点辐角 139.895°
升交点赤经 65.315°
平近点角 220.317°
近地点: 442.602km
远地点: 458.588km
周期: 93.599分钟
每日圈数: 15.384836
详细信息
使用方式:
暂无
2D轨道图
3D轨道图
轨道高度分析图
轨道倾角分析图
轨道综合分析图
查看轨道综合分析图